7 * 24
多渠道服务支持
HULIANWANG DIGUI-141是中国于2026年1月13日发射的低轨卫星,隶属于我国低轨互联网星座,旨在提供高速天基互联网接入服务。该卫星星座通过规模化组网,有望弥补地面网络覆盖盲区,为全球偏远地区、海洋空域等提供稳定宽带通信,助力天地一体化信息网络建设,推动卫星互联网产业发展。
中国
(CN)
| 数据来源 | 国际轨道数据 | AOE轨道数据 |
| 星历时间 | 2026-05-24T02:56:38+0800 1天前 查看轨道信息 | 2026-05-24T03:00:00+0800 1天前 查看轨道信息 |
| 半长轴 | 7527.446km | 7527.457km |
| 偏心率 | 0.0000871 | 0.0000028 |
| 轨道倾角 | 50.002° | 50.003° |
| 近地点辐角 | 277.173° | 23.591° |
| 升交点赤经 | 173.237° | 173.230° |
| 平近点角 | 82.904° | 347.664° |
| 近地点 | 1148.653km | 1149.298km |
| 远地点 | 1149.965km | 1149.342km |
| 周期 | 108.326分钟 | 108.326分钟 |
| 每日圈数 | 13.293256 | 13.293226 |